User: anonymous   Login
Location: Caltech
(34.1382°N, 118.1253°W)
Time: 01:42:37
(UTC-07:00)
Language:

Cosmos 2251 Rocket - Orbit

View from above orbital plane
View from above orbital plane
View from above satellite
View from above satellite

Ground track
Ground track

The orbit data is extracted from the following two-line orbital elements,

1 22676U 93036B   16181.79961522  .00000007  00000-0  11905-4 0  9999
2 22676  74.0432 106.3272 0019706 221.8641 138.1005 14.33880590204839
Epoch (UTC): 29 June 2016 19:11:26
Eccentricity: 0.0019706
inclination: 74.0432°
perigee height: 764 km
apogee height: 793 km
right ascension of ascending node: 106.3272°
argument of perigee: 221.8641°
revolutions per day: 14.33880590
mean anomaly at epoch: 138.1005°
orbit number at epoch: 20483

The dashed part of the orbit path shows where the satellite is in the earth's shadow,  

DLR